Wind_Speed
15 16 18 22 23 23 24 28 31 31 30 31 34 34 34 36 38 40 42 43 44 46 47 48 49 49 49 50 51 50 50 50 50 50 50 50 50 50 50 50 50 50 49 49
14 15 17 20 22 23 24 27 29 30 29 29 31 32 32 33 35 37 39 42 44 45 45 47 48 49 49 49 50 51 51 50 49 49 49 50 50 50 50 50 49 49 49 49
13 15 16 18 20 22 24 26 29 30 30 30 30 31 32 32 33 35 37 39 41 43 44 45 46 47 48 49 49 49 50 51 51 50 50 49 50 50 50 51 50 50 49 49
12 12 14 16 18 21 24 26 29 31 31 30 30 30 31 32 33 34 35 36 38 40 42 44 46 47 47 48 49 49 49 50 50 50 50 50 50 50 51 50 50 50 50 50
11 12 12 14 16 19 22 26 29 29 29 29 30 31 31 31 32 33 34 36 37 38 40 41 43 45 46 46 47 48 49 49 49 50 50 50 50 50 50 50 50 50 50 50
11 12 13 14 15 18 20 23 27 29 29 29 30 30 31 32 32 33 33 34 35 37 38 39 41 42 44 45 46 47 47 48 49 49 49 50 50 50 49 50 50 49 49 50
11 12 12 13 14 17 20 22 25 28 28 29 31 31 30 30 31 32 32 32 33 34 36 38 39 41 42 43 43 44 45 46 47 47 47 48 49 49 49 49 49 49 49 50
12 11 11 12 14 16 17 20 23 25 26 27 29 30 30 29 29 30 31 32 32 33 34 35 37 39 40 41 41 42 42 43 44 44 45 46 46 47 48 48 48 48 48 48
12 12 11 12 12 14 15 17 20 22 24 25 26 28 28 29 29 29 30 31 32 32 32 33 35 36 38 39 40 40 41 41 42 42 43 44 45 46 46 46 46 46 46 46
13 12 11 12 12 13 14 15 17 19 22 24 25 27 27 27 29 30 30 30 31 31 31 31 33 35 36 37 38 39 39 39 40 40 41 41 41 43 44 45 45 45 46 46
13 12 11 11 12 13 13 14 16 18 20 22 25 26 26 26 28 29 29 30 30 31 32 32 33 34 35 36 37 38 39 39 39 39 40 40 40 40 41 42 43 44 44 45
13 12 11 11 11 11 12 14 15 17 19 20 21 23 24 24 26 27 28 29 30 31 31 32 33 34 35 36 37 38 38 38 39 39 40 40 40 40 41 41 41 42 43 43
13 12 11 11 11 11 11 12 14 15 17 18 19 20 21 22 23 24 26 27 29 30 31 32 33 34 34 35 36 37 37 38 38 39 39 40 40 40 41 41 41 41 42 42
13 13 12 12 12 12 12 12 12 13 14 16 18 19 20 20 21 22 23 25 26 28 30 31 32 33 33 34 35 35 36 37 37 38 39 39 40 40 41 41 41 41 41 42
13 14 13 13 12 13 13 13 13 13 14 15 17 18 19 19 20 21 21 23 24 26 27 28 29 30 31 33 34 35 35 36 36 37 38 38 39 39 40 40 40 41 41 41
14 14 14 13 13 13 13 13 13 13 14 15 16 17 18 19 19 19 19 20 21 23 24 26 27 28 29 31 32 33 33 34 35 35 35 36 37 37 37 38 39 39 39 40
15 15 14 14 13 13 13 14 14 14 15 16 16 17 18 18 18 18 19 19 20 21 22 24 25 26 27 27 28 30 31 32 33 33 33 33 34 34 35 36 37 37 37 38
15 15 15 14 14 14 14 14 15 15 15 16 17 18 18 19 19 19 19 19 20 21 22 23 24 24 25 25 26 27 28 29 30 30 31 31 31 32 32 33 34 35 36 36
16 16 16 15 15 15 15 15 15 15 16 16 17 17 18 19 19 20 20 20 20 21 22 23 23 23 23 23 24 25 26 27 28 29 29 30 30 30 31 32 33 34 34 34
16 16 16 16 15 15 15 15 15 16 16 16 17 17 18 19 19 20 20 21 21 21 20 21 22 21 22 23 23 24 24 25 26 27 28 28 29 29 30 30 31 31 31 32
17 17 17 17 17 16 16 17 17 17 17 17 17 17 18 19 19 20 20 21 21 21 21 21 21 21 22 23 24 24 24 24 25 25 26 27 27 28 28 29 29 29 29 30
19 19 19 19 18 18 18 18 18 18 18 18 18 18 18 19 19 20 20 21 21 22 22 22 22 22 23 23 24 24 24 24 24 25 25 26 26 26 27 27 28 28 29 30
21 20 20 19 19 19 19 19 19 19 19 19 19 19 19 19 19 20 20 21 21 22 23 23 23 23 23 24 24 24 24 24 24 25 25 25 25 26 26 26 27 28 29 29
21 21 21 20 20 20 20 20 20 20 20 20 20 20 20 20 19 20 20 21 21 22 22 23 23 23 23 23 24 24 24 24 24 24 24 24 25 25 26 26 26 26 27 27
22 22 21 21 20 20 20 20 21 21 21 20 20 20 20 19 19 19 19 20 20 21 21 22 23 23 23 23 24 24 24 24 24 25 25 24 24 24 25 25 25 25 25 25
23 22 22 21 21 21 21 21 21 21 21 20 20 20 20 20 19 19 19 19 20 20 21 21 22 22 22 23 23 24 24 24 25 25 25 24 24 24 24 23 24 24 24 24
23 22 21 21 21 20 20 20 20 20 20 20 20 20 20 20 20 20 20 20 20 20 21 21 22 22 22 22 22 22 23 23 24 24 24 24 24 23 23 23 23 23 23 23
Wind_Direction
266 255 242 231 227 225 224 223 224 224 227 227 229 231 232 233 232 231 231 230 230 230 229 230 230 231 232 233 234 235 236 236 237 237 238 239 240 241 242 243 244 246 246 247
269 258 247 235 226 225 224 222 221 222 225 226 226 228 229 232 233 233 233 233 232 232 231 231 232 232 232 233 235 236 236 236 237 238 239 240 241 242 242 243 244 245 247 248
274 262 251 238 228 225 226 224 222 223 224 225 228 228 230 232 233 231 233 234 233 233 233 234 234 234 234 234 235 236 237 238 238 239 239 240 241 242 243 244 244 245 247 248
284 266 253 242 233 230 227 225 224 224 226 228 228 229 230 232 234 234 233 233 233 234 235 235 235 235 235 235 235 236 237 238 239 240 241 241 242 242 243 244 245 246 247 248
289 271 255 246 241 234 230 229 228 227 227 228 228 230 230 232 234 235 235 234 235 235 236 235 235 236 236 236 236 237 238 238 239 240 241 241 242 242 243 244 245 246 247 248
291 278 267 256 247 240 238 236 232 232 231 230 230 232 231 232 233 235 237 237 237 237 238 237 236 235 236 236 237 237 238 239 240 240 241 242 242 243 244 245 246 246 247 248
298 285 275 263 256 250 248 242 236 235 236 235 234 234 234 234 235 237 237 238 238 239 239 238 237 236 236 236 237 237 238 238 239 240 241 242 242 243 244 245 246 246 247 248
307 293 284 275 267 260 254 246 242 239 239 239 238 237 236 235 235 235 236 237 238 239 239 238 237 237 236 236 236 236 237 237 238 240 241 242 242 243 244 245 246 247 248 249
308 298 288 283 276 267 257 250 247 245 242 241 241 239 239 238 235 235 237 238 239 239 239 238 237 236 236 235 235 235 236 237 239 240 241 242 243 244 244 246 247 247 248 248
309 302 289 283 280 271 264 257 251 246 243 243 244 243 243 241 239 239 239 239 240 240 239 237 236 235 235 235 235 236 236 237 239 239 239 241 243 244 245 245 247 248 248 249
306 300 292 287 281 273 265 258 253 249 247 246 245 244 245 246 243 241 241 241 241 241 240 238 238 236 235 235 235 236 237 238 238 239 239 241 243 244 245 245 247 248 249 249
306 302 298 293 284 274 266 260 255 251 248 246 245 244 245 247 247 245 244 243 243 243 242 240 240 239 238 238 238 238 238 239 240 240 241 243 244 245 246 247 248 249 250 250
310 303 299 295 287 279 273 264 257 253 250 247 244 245 246 247 248 249 247 245 243 242 243 243 241 240 240 240 240 240 241 241 242 242 244 245 246 247 248 248 250 250 250 249
313 306 298 291 285 282 279 271 264 257 252 249 246 246 247 248 250 251 249 246 244 242 243 242 241 241 240 240 241 242 242 243 244 245 245 246 247 248 249 249 250 251 251 250
313 308 302 293 285 281 277 273 269 262 255 252 250 250 250 250 251 252 250 246 244 242 241 240 239 240 239 240 242 243 243 243 244 245 246 247 249 250 250 250 250 250 251 251
311 309 304 299 292 286 281 276 272 266 261 258 254 252 253 252 250 250 248 246 244 242 240 240 240 240 240 241 242 242 242 242 243 244 245 247 248 249 249 249 249 249 250 251
310 308 305 301 296 291 286 281 276 268 263 260 258 255 254 253 251 248 247 247 245 241 239 238 239 240 240 240 240 240 240 241 242 243 243 244 245 247 248 247 247 247 248 250
311 307 304 301 296 293 289 284 279 273 265 262 260 257 255 254 251 249 248 249 247 244 242 240 239 239 239 240 240 239 239 239 240 241 242 243 244 246 247 248 248 248 248 249
309 307 303 298 294 292 290 286 281 276 271 267 263 260 257 255 253 252 251 251 249 247 245 243 241 241 239 239 240 240 240 240 241 242 243 243 245 246 247 248 250 250 250 250
309 307 303 298 293 290 289 287 284 279 276 273 268 263 259 257 255 254 253 252 250 249 247 245 243 242 241 240 240 240 241 241 242 243 243 244 245 247 248 249 250 250 250 251
308 306 302 297 293 290 287 286 284 280 277 275 272 266 261 258 257 256 255 253 251 249 248 248 246 245 244 242 241 241 242 241 242 243 244 245 247 248 249 249 250 250 251 252
306 304 300 296 292 289 287 286 284 281 277 275 273 269 265 262 260 257 255 253 251 249 248 248 248 247 246 244 242 242 241 242 243 245 246 246 247 249 249 250 251 252 254 255
305 303 300 295 292 288 286 285 284 282 278 274 272 270 267 266 263 259 255 253 251 248 247 247 246 246 245 244 243 243 244 244 246 247 248 248 248 249 250 250 252 254 256 258
305 303 299 295 291 289 287 286 285 282 279 275 272 268 266 265 263 260 257 254 253 251 248 247 246 245 244 244 243 243 245 245 246 247 248 249 250 250 250 251 253 256 258 260
305 302 299 295 291 288 287 286 285 283 280 276 272 268 266 265 263 261 257 255 253 251 249 248 246 245 244 243 243 243 244 245 246 247 247 248 249 250 251 252 254 256 259 261
306 303 299 296 292 288 286 285 284 281 278 275 271 268 265 263 261 259 257 256 254 252 251 250 248 246 245 244 244 244 244 244 246 247 247 248 250 251 252 254 255 257 260 262
308 305 300 297 293 289 287 286 284 281 277 274 271 269 266 263 260 257 256 255 255 254 252 250 247 245 245 244 245 245 244 245 246 247 247 249 251 251 252 254 256 258 261 262
Height
5486 5486 5487 5489 5493 5496 5499 5502 5507 5511 5516 5520 5524 5529 5533 5537 5542 5547 5552 5557 5563 5568 5574 5580 5585 5591 5596 5602 5608 5613 5618 5624 5629 5633 5638 5642 5647 5651 5655 5659 5662 5666 5669 5672
5482 5482 5482 5484 5487 5490 5493 5496 5500 5505 5509 5513 5517 5521 5525 5529 5533 5538 5543 5547 5552 5558 5563 5569 5574 5579 5585 5590 5596 5601 5606 5612 5617 5621 5626 5630 5635 5639 5643 5646 5650 5653 5657 5660
5479 5478 5478 5480 5482 5485 5488 5491 5495 5498 5503 5506 5510 5514 5517 5521 5525 5529 5533 5538 5542 5547 5552 5557 5562 5568 5573 5579 5584 5589 5594 5600 5604 5609 5614 5618 5622 5626 5630 5634 5638 5641 5644 5648
5475 5476 5476 5478 5478 5480 5483 5485 5488 5492 5496 5499 5503 5506 5509 5513 5516 5520 5524 5528 5533 5537 5541 5546 5551 5556 5562 5567 5572 5577 5582 5587 5592 5597 5601 5606 5610 5614 5618 5621 5625 5629 5632 5636
5473 5472 5471 5473 5474 5475 5478 5480 5482 5485 5489 5492 5495 5498 5502 5505 5508 5511 5515 5519 5523 5527 5531 5536 5540 5545 5550 5555 5560 5565 5570 5575 5579 5584 5589 5593 5597 5601 5605 5609 5613 5616 5619 5623
5469 5468 5468 5470 5470 5470 5473 5475 5476 5478 5481 5484 5487 5491 5495 5497 5500 5503 5507 5510 5514 5517 5521 5525 5529 5534 5538 5543 5548 5553 5558 5562 5567 5571 5576 5580 5585 5588 5592 5596 5600 5603 5607 5610
5466 5465 5465 5465 5465 5466 5469 5470 5470 5472 5474 5477 5480 5483 5486 5489 5492 5495 5498 5502 5505 5508 5511 5515 5519 5523 5528 5532 5537 5541 5546 5550 5554 5559 5563 5567 5572 5576 5580 5583 5587 5591 5594 5597
5463 5462 5464 5461 5461 5462 5462 5462 5464 5465 5467 5470 5472 5475 5478 5481 5484 5487 5490 5493 5496 5499 5502 5505 5509 5513 5518 5522 5526 5531 5535 5539 5543 5547 5551 5555 5559 5563 5567 5571 5574 5577 5581 5584
5461 5461 5459 5457 5456 5456 5456 5457 5458 5459 5461 5464 5466 5468 5471 5474 5476 5479 5482 5485 5488 5491 5493 5496 5500 5504 5508 5512 5516 5520 5524 5528 5532 5535 5539 5543 5547 5551 5555 5558 5561 5565 5568 5571
5457 5456 5455 5454 5453 5452 5452 5452 5453 5454 5455 5457 5459 5462 5464 5467 5469 5472 5474 5477 5480 5482 5485 5488 5491 5495 5499 5503 5506 5510 5514 5518 5521 5525 5529 5532 5536 5539 5542 5546 5549 5552 5556 5559
5454 5453 5451 5450 5449 5448 5448 5447 5448 5449 5450 5451 5453 5455 5457 5460 5462 5464 5466 5469 5472 5474 5477 5480 5483 5486 5490 5493 5497 5501 5504 5508 5512 5515 5518 5522 5525 5528 5531 5534 5537 5540 5543 5546
5451 5449 5447 5446 5445 5444 5443 5443 5443 5444 5445 5446 5447 5449 5451 5453 5455 5457 5459 5461 5464 5466 5469 5472 5475 5478 5481 5484 5488 5491 5495 5498 5502 5505 5508 5511 5514 5517 5519 5522 5525 5527 5530 5533
5447 5445 5443 5442 5441 5440 5439 5439 5439 5439 5440 5441 5442 5444 5445 5447 5448 5450 5452 5454 5456 5458 5461 5463 5466 5469 5471 5474 5478 5481 5485 5488 5491 5494 5497 5500 5503 5506 5509 5511 5513 5516 5518 5521
5443 5441 5440 5438 5437 5436 5435 5434 5434 5435 5435 5436 5437 5438 5439 5441 5442 5443 5444 5446 5448 5450 5453 5455 5457 5460 5463 5465 5469 5472 5475 5478 5481 5484 5487 5489 5492 5495 5497 5500 5502 5504 5507 5509
5440 5437 5436 5434 5433 5432 5431 5430 5430 5430 5431 5431 5432 5433 5434 5435 5436 5437 5438 5439 5441 5443 5445 5447 5449 5452 5454 5457 5460 5463 5465 5468 5471 5474 5476 5479 5481 5483 5486 5488 5491 5493 5495 5497
5436 5434 5432 5430 5429 5428 5427 5426 5426 5426 5426 5427 5427 5428 5428 5429 5430 5431 5432 5432 5434 5436 5438 5440 5442 5444 5446 5448 5451 5453 5456 5459 5461 5464 5466 5468 5471 5473 5475 5477 5480 5482 5484 5486
5432 5430 5428 5426 5425 5423 5422 5422 5421 5421 5421 5422 5422 5422 5423 5423 5424 5425 5426 5427 5428 5429 5431 5433 5435 5436 5438 5440 5442 5444 5447 5449 5452 5454 5456 5459 5461 5463 5465 5467 5469 5472 5474 5476
5427 5425 5423 5422 5420 5419 5418 5417 5416 5416 5416 5416 5416 5417 5417 5418 5418 5419 5420 5421 5422 5423 5424 5426 5427 5429 5431 5432 5434 5436 5438 5441 5443 5445 5447 5450 5452 5454 5455 5457 5459 5461 5463 5465
5423 5421 5419 5417 5416 5414 5413 5412 5411 5411 5411 5411 5411 5411 5411 5412 5412 5413 5414 5415 5416 5417 5418 5419 5420 5422 5423 5425 5427 5429 5431 5433 5435 5437 5439 5441 5443 5444 5446 5448 5450 5452 5454 5455
5418 5416 5414 5412 5411 5409 5408 5407 5406 5406 5405 5405 5405 5405 5405 5405 5406 5407 5407 5408 5409 5410 5411 5412 5414 5415 5416 5418 5420 5422 5423 5425 5427 5429 5431 5432 5434 5436 5438 5439 5441 5443 5444 5446
5413 5411 5409 5407 5405 5404 5403 5402 5401 5400 5399 5399 5399 5398 5399 5399 5399 5400 5400 5401 5402 5403 5404 5406 5407 5408 5410 5411 5413 5414 5416 5418 5419 5421 5423 5425 5426 5428 5429 5431 5432 5434 5435 5436
5407 5405 5403 5401 5400 5398 5397 5396 5395 5394 5393 5393 5392 5392 5392 5392 5392 5393 5393 5394 5395 5396 5397 5399 5400 5401 5403 5404 5406 5407 5409 5410 5412 5414 5415 5417 5418 5420 5421 5422 5424 5425 5426 5427
5401 5399 5397 5395 5393 5392 5390 5389 5388 5387 5387 5386 5386 5385 5385 5385 5385 5386 5386 5387 5388 5389 5390 5391 5393 5394 5395 5397 5398 5400 5401 5403 5405 5406 5408 5409 5410 5411 5413 5414 5415 5416 5416 5417
5395 5392 5390 5388 5386 5385 5383 5382 5381 5380 5379 5379 5379 5378 5378 5378 5378 5378 5379 5379 5380 5381 5382 5383 5385 5386 5388 5389 5391 5392 5394 5395 5397 5398 5400 5401 5402 5403 5404 5405 5406 5407 5407 5408
5388 5385 5383 5381 5379 5378 5376 5375 5374 5373 5372 5371 5371 5371 5371 5371 5371 5371 5372 5372 5373 5374 5375 5376 5377 5378 5380 5381 5383 5385 5386 5388 5389 5391 5392 5393 5394 5396 5396 5397 5398 5399 5399 5399
5381 5378 5376 5374 5372 5371 5369 5368 5367 5366 5365 5364 5364 5363 5363 5364 5364 5364 5365 5365 5366 5367 5368 5368 5370 5371 5372 5374 5376 5377 5379 5380 5382 5383 5384 5385 5387 5388 5389 5389 5390 5391 5391 5391
5374 5371 5369 5367 5365 5363 5362 5361 5360 5358 5358 5357 5357 5356 5356 5356 5357 5357 5358 5358 5359 5360 5360 5361 5362 5364 5365 5367 5368 5369 5371 5372 5374 5375 5376 5378 5379 5380 5381 5382 5382 5383 5383 5383